sat.trackr.live / text

‹ back to catalog

STARLINK-5660

NORAD 55335 · 2023-013E

PAYLOAD ACTIVE UNKNOWN

§ Identity

Operator
Country
US
Launch date
2023-01-26
Launch site
AFETR
Launch vehicle
Mass (kg)
RCS (m²)

Purposes: comms

External: N2YO · Heavens-Above · Gunter

§ Orbital elements

Epoch: 2026-05-24T22:47:24.663264Z

Period
94.27 min
Inclination
43.0008°
Eccentricity
0.0001075
Mean motion
15.27567232 rev/d
Perigee alt
482.3 km
Apogee alt
483.8 km
Semi-major
6,861.2 km
B*
-1.0327e-5
RAAN
232.9703°
Arg perigee
271.1116°
Mean anomaly
88.9612°
Rev number
18,333

§ Raw data

STARLINK-56601 55335U 23013E   26144.94959101 -.00000546  00000+0 -10327-4 0  99982 55335  43.0008 232.9703 0001075 271.1116  88.9612 15.27567232183338

JSON: /api/v1/satellites/55335 · /tle

For live sub-satellite position, see the globe view (requires WebGL).

§ Visibility from observer

Set your observer location to see the next 7 days of passes ≥ 10°. The values pass through the URL so the page stays shareable.

No JS? Fill the form by hand. The geolocation button needs JavaScript.